Location: Asheville, NC
(35.6000°N, 82.5500°W)
Time: 01:13:20
(UTC-05:00)

AO-7 - Pass Details

Date: 11 January 2018
Orbit: 1440 x 1458 km, 101.7° (Epoch: 20 January)

Event Time Altitude Azimuth Distance (km) Brightness Sun altitude
Rises 05:50:49 0° 4° (N) 4,570 ? -21.8°
Reaches altitude 10° 05:54:15 10° 352° (N) 3,587 ? -21.1°
Enters shadow 05:59:30 24° 313° (NW) 2,673 ? -20.0°
